EW0139 Weather Reports


time (UTC)temp
F
wind
direction
speed
knots
gust
knots
rain 1hr
in
rain 24hr
in
rain mn
in
humidity
%
barometer
mb
20260831055259 54 145 4.3 6.1 0.00 0.03 0.03 58 1009.2
20260831053800 56 138 4.3 5.2 0.00 0.03 0.03 56 1009.4
20260831052241 53 156 0.9 3.5 0.00 0.03 0.03 62 1009.5
20260831050809 54 244 0.9 2.6 0.00 0.03 0.03 59 1009.6
20260831045248 54 244 0.0 0.0 0.00 0.03 0.03 59 1009.6
20260831043747 55 243 0.0 1.7 0.00 0.03 0.03 59 1009.6
20260831042312 55 244 0.9 1.7 0.00 0.03 0.03 58 1009.6
20260831040752 54 244 0.0 0.9 0.00 0.03 0.03 59 1009.5
20260831035257 55 244 0.0 1.7 0.00 0.03 0.03 56 1009.5
20260831033759 57 243 0.0 0.0 0.00 0.03 0.03 52 1009.2
20260831032301 59 244 0.0 0.0 0.00 0.03 0.03 50 1009.4
20260831030747 59 243 0.0 1.7 0.00 0.03 0.03 49 1009.4
20260831025249 60 244 0.0 0.9 0.00 0.03 0.03 48 1009.3
20260831023751 61 243 1.7 2.6 0.00 0.03 0.03 46 1009.0
20260831022258 63 244 0.0 3.5 0.00 0.03 0.03 44 1008.6
20260831020819 63 231 1.7 4.3 0.00 0.03 0.03 45 1008.8
20260831015242 65 273 0.0 1.7 0.00 0.03 0.03 43 1008.6
20260831013741 66 273 0.0 1.7 0.00 0.03 0.03 42 1008.5
20260831012242 67 273 1.7 4.3 0.00 0.03 0.03 41 1008.6
20260831010748 69 273 5.2 7.8 0.00 0.03 0.03 39 1008.6
20260831005248 70 263 7.8 12.2 0.00 0.03 0.03 37 1008.5
20260831003750 70 238 13.9 13.9 0.00 0.03 0.03 39 1008.5
20260831002255 70 247 10.4 14.8 0.00 0.03 0.03 39 1008.4
20260831000815 71 258 11.3 15.6 0.00 0.03 0.03 37 1008.3
20260830235315 71 219 13.0 16.5 0.00 0.03 0.03 37 1008.2
20260830233740 71 231 6.1 12.2 0.00 0.03 0.03 41 1009.1
20260830232246 71 239 8.7 20.0 0.00 0.03 0.03 39 1009.2
20260830230752 70 212 7.8 14.8 0.00 0.03 0.03 46 1009.2
20260830225313 70 236 7.8 11.3 0.00 0.03 0.03 50 1009.3
20260830223753 68 227 6.1 12.2 0.00 0.03 0.03 55 1009.3
20260830222320 67 221 11.3 13.9 0.00 0.03 0.03 55 1009.5
20260830220821 66 256 9.6 14.8 0.00 0.03 0.03 55 1009.8
20260830215305 65 263 9.6 11.3 0.00 0.03 0.03 56 1010.1
20260830213748 64 197 1.7 2.6 0.00 0.03 0.03 56 1008.9
20260830212248 65 197 0.0 8.7 0.00 0.03 0.03 56 1008.9
20260830210749 65 204 8.7 11.3 0.00 0.03 0.03 59 1009.7
20260830205254 65 202 7.8 14.8 0.00 0.03 0.03 59 1010.7
20260830203755 65 175 8.7 15.6 0.00 0.03 0.03 59 1010.6
20260830202240 66 228 6.1 16.5 0.00 0.03 0.03 61 1010.5
20260830200745 66 224 7.8 14.8 0.00 0.03 0.03 57 1009.9
20260830195306 67 226 13.9 17.4 0.00 0.03 0.03 56 1009.8
20260830193751 67 242 10.4 20.9 0.00 0.03 0.03 55 1009.7
20260830192254 69 289 6.1 11.3 0.00 0.03 0.03 49 1009.0
20260830190755 67 292 6.1 11.3 0.00 0.03 0.03 55 1008.5
20260830185321 67 304 12.2 16.5 0.00 0.03 0.03 58 1008.5
20260830183740 66 288 16.5 18.2 0.00 0.03 0.03 60 1009.1
20260830182244 66 267 10.4 18.2 0.00 0.03 0.03 59 1009.4
20260830180751 67 248 13.9 18.2 0.00 0.03 0.03 60 1009.5
20260830175250 66 278 10.4 21.7 0.00 0.03 0.03 59 1009.6
20260830173755 66 263 11.3 20.9 0.00 0.03 0.03 62 1009.8
20260830172254 66 261 8.7 15.6 0.00 0.03 0.03 62 1009.6
20260830170756 65 259 11.3 13.0 0.00 0.03 0.03 67 1009.6
20260830165258 66 279 11.3 17.4 0.00 0.03 0.03 62 1009.4
20260830163759 66 280 10.4 20.9 0.00 0.03 0.03 60 1009.2
20260830162240 66 277 16.5 21.7 0.00 0.03 0.03 58 1009.0
20260830160745 65 276 12.2 18.2 0.00 0.03 0.03 66 1008.9
20260830155307 65 269 11.3 18.2 0.00 0.03 0.03 71 1008.7
20260830153810 64 279 11.3 18.2 0.01 0.03 0.03 70 1008.5
20260830152254 64 293 15.6 15.6 0.01 0.03 0.03 74 1008.6
20260830150753 62 302 9.6 15.6 0.01 0.03 0.03 78 1008.3
20260830145315 61 284 11.3 13.9 0.01 0.03 0.03 81 1008.4
20260830143737 61 282 9.6 13.0 0.00 0.02 0.02 83 1008.4
20260830142241 61 260 8.7 11.3 0.00 0.02 0.02 83 1008.3
20260830140749 61 279 4.3 6.1 0.00 0.02 0.02 83 1008.1
20260830135249 61 265 3.5 5.2 0.00 0.02 0.02 82 1008.1
20260830133750 62 288 4.3 8.7 0.00 0.02 0.02 78 1008.1
20260830132254 61 299 0.0 3.5 0.00 0.02 0.02 80 1008.0
20260830130754 61 306 5.2 6.1 0.01 0.02 0.02 81 1008.1
20260830125239 61 312 3.5 8.7 0.01 0.02 0.02 81 1007.9
20260830123802 60 296 6.1 9.6 0.02 0.02 0.02 79 1007.8
20260830122244 60 290 11.3 14.8 0.02 0.02 0.02 78 1007.6
20260830120751 60 298 13.0 13.0 0.01 0.01 0.01 75 1007.8
20260830115252 60 298 8.7 19.1 0.01 0.01 0.01 75 1007.1
20260830113753 63 282 9.6 10.4 0.00 0.00 0.00 67 1007.6
20260830112258 64 271 5.2 9.6 0.00 0.00 0.00 60 1008.1
20260830110740 63 251 5.2 8.7 0.00 0.00 0.00 62 1007.9
20260830105307 64 220 9.6 11.3 0.00 0.00 0.00 61 1008.1
20260830103746 62 324 0.0 1.7 0.00 0.00 0.00 64 1007.5
20260830102313 62 324 0.0 4.3 0.00 0.00 0.00 63 1007.2
20260830100755 64 17 2.6 2.6 0.00 0.00 0.00 60 1007.1
20260830095254 66 67 0.0 0.9 0.00 0.00 0.00 59 1006.5
20260830093754 68 67 0.0 1.7 0.00 0.00 0.00 57 1006.4
20260830092259 69 67 1.7 2.6 0.00 0.00 0.00 54 1006.5
20260830090739 69 67 1.7 2.6 0.00 0.00 0.00 53 1006.7
20260830085248 68 67 0.0 2.6 0.00 0.00 0.00 54 1006.9
20260830083750 68 72 0.0 3.5 0.00 0.00 0.00 54 1007.1
20260830082251 68 75 0.9 3.5 0.00 0.00 0.00 53 1007.1
20260830080820 68 137 1.7 5.2 0.00 0.00 0.00 53 1007.0
20260830075259 69 151 3.5 4.3 0.00 0.00 0.00 51 1007.1
20260830073818 69 312 0.0 0.9 0.00 0.00 0.00 51 1007.1
20260830072243 70 312 0.0 0.9 0.00 0.00 0.00 50 1007.3
20260830070748 70 312 0.0 1.7 0.00 0.00 0.00 50 1007.3
20260830065253 70 312 0.0 0.0 0.00 0.00 0.00 49 1007.3
20260830063756 71 312 0.0 2.6 0.00 0.00 0.00 48 1007.3
20260830062256 72 301 2.6 8.7 0.00 0.00 0.00 47 1007.4
20260830060802 72 267 4.3 10.4 0.00 0.00 0.00 48 1007.3